Willimantic, CT

12:38 AM EST on December 10, 2019 (GMT -0500)
Windham

Weather History for KIJD - June, 2019

Change the Weather History Date:

Monday, June 10, 2019

  Actual Average Record
Temperature  
Mean Temperature 62 °F -  
Max Temperature 77 °F 77 °F 96 °F (2008)
Min Temperature 48 °F 52 °F 30 °F (1957)
Degree Days  
Heating Degree Days 4    
Growing Degree Days 12 (Base 50)    
Moisture  
Dew Point 59 °F    
Average Humidity 82    
Maximum Humidity 96    
Minimum Humidity 50    
Precipitation  
Precipitation 0.24 in - - ()
Sea Level Pressure  
Sea Level Pressure 30.07 in    
Wind  
Wind Speed 3 mph ()    
Max Wind Speed 9 mph    
Max Gust Speed 21 mph    
Visibility 7.3 miles    
Events Rain    
Averages and records for this station are not official NWS values.
T = Trace of Precipitation, MM = Missing Value Source: Averaged Metar Reports

Daily Weather History Graph

Daily Weather History Graph

Search for Another Location

Airport or City:

Astronomy

Jun. 10, 2019 Rise Set
Actual Time 5:13 AM EDT 8:22 PM EDT
Civil Twilight 4:39 AM EDT 8:56 PM EDT
Nautical Twilight 3:56 AM EDT 9:40 PM EDT
Astronomical Twilight 3:04 AM EDT 10:32 PM EDT
Moon 1:03 PM EDT 1:31 AM EDT
Length of Visible Light 16h 16m
Length of Day
15h 08m
First Quarter, 55% of the Moon is Illuminated
Jun 10
First Quarter
Jun 17
Full
Jun 25
Last Quarter
Jul 2
New
Jul 9
First Quarter

Hourly Weather History & Observations

Time (EDT) Temp. Dew Point Humidity Pressure Visibility Wind Dir Wind Speed Gust Speed Precip Events Conditions
12:52 AM 52.0 °F 46.0 °F 80% 30.28 in 10.0 mi Calm Calm - N/A   Clear
1:52 AM 51.1 °F 46.0 °F 83% 30.27 in 10.0 mi Calm Calm - N/A   Clear
2:52 AM 50.0 °F 46.0 °F 86% 30.26 in 10.0 mi Calm Calm - N/A   Clear
3:52 AM 48.9 °F 45.0 °F 86% 30.24 in 10.0 mi Calm Calm - N/A   Clear
4:52 AM 48.0 °F 45.0 °F 89% 30.24 in 10.0 mi Calm Calm - N/A   Clear
5:52 AM 48.0 °F 45.0 °F 89% 30.24 in 10.0 mi Calm Calm - N/A   Clear
6:52 AM 52.0 °F 46.9 °F 83% 30.23 in 10.0 mi Calm Calm - N/A   Clear
7:52 AM 59.0 °F 50.0 °F 72% 30.22 in 10.0 mi Calm Calm - N/A   Clear
8:52 AM 64.9 °F 55.0 °F 70% 30.20 in 10.0 mi East 3.5 mph - N/A   Clear
9:52 AM 68.0 °F 55.0 °F 63% 30.19 in 10.0 mi South 6.9 mph - N/A   Clear
10:52 AM 70.0 °F 55.9 °F 61% 30.18 in 10.0 mi SSE 9.2 mph - N/A   Clear
11:52 AM 73.9 °F 54.0 °F 50% 30.15 in 10.0 mi Variable 5.8 mph - N/A   Clear
12:52 PM 73.9 °F 57.0 °F 55% 30.13 in 10.0 mi South 6.9 mph - N/A   Clear
1:52 PM 75.9 °F 59.0 °F 56% 30.11 in 10.0 mi South 9.2 mph - N/A   Clear
2:52 PM 75.9 °F 60.1 °F 58% 30.09 in 10.0 mi SSE 9.2 mph - N/A   Partly Cloudy
3:52 PM 75.0 °F 61.0 °F 62% 30.06 in 10.0 mi Variable 5.8 mph 19.6 mph N/A   Mostly Cloudy
4:40 PM 73.0 °F 61.0 °F 66% 30.05 in 10.0 mi SSE 3.5 mph 20.7 mph N/A   Overcast
4:52 PM 73.0 °F 61.0 °F 66% 30.04 in 10.0 mi SSE 8.1 mph 17.3 mph N/A   Overcast
5:52 PM 70.0 °F 62.1 °F 76% 30.02 in 10.0 mi East 3.5 mph - N/A   Overcast
6:44 PM 66.9 °F 64.0 °F 90% 30.02 in 2.5 mi SE 5.8 mph - 0.00 in Rain Light Rain
6:48 PM 66.2 °F 64.4 °F 94% 30.02 in 3.0 mi SE 4.6 mph - 0.00 in Rain Light Rain
6:52 PM 66.9 °F 64.0 °F 90% 30.01 in 4.0 mi SE 6.9 mph - 0.00 in Rain Light Rain
7:27 PM 66.9 °F 64.0 °F 90% 30.00 in 7.0 mi Variable 5.8 mph - 0.00 in   Overcast
7:52 PM 66.9 °F 64.0 °F 90% 29.99 in 4.0 mi Variable 3.5 mph - 0.00 in Rain Light Rain
8:04 PM 66.9 °F 64.0 °F 90% 29.99 in 2.5 mi Calm Calm - 0.02 in Rain Light Rain
8:17 PM 66.0 °F 64.0 °F 93% 29.98 in 3.0 mi Variable 5.8 mph - 0.02 in Rain Light Rain
8:26 PM 66.0 °F 64.0 °F 93% 29.98 in 2.0 mi SSE 5.8 mph - 0.06 in Rain Rain
8:29 PM 66.0 °F 64.0 °F 93% 29.98 in 1.8 mi SE 4.6 mph - 0.08 in Rain Rain
8:47 PM 66.2 °F 64.4 °F 94% 29.98 in 2.5 mi Variable 6.9 mph - 0.12 in Rain Light Rain
8:52 PM 66.0 °F 64.0 °F 93% 29.97 in 3.0 mi Variable 4.6 mph - 0.12 in Rain Light Rain
9:52 PM 66.0 °F 64.9 °F 96% 29.96 in 7.0 mi Variable 3.5 mph - 0.02 in Rain Light Rain
10:27 PM 66.0 °F 64.0 °F 93% 29.95 in 5.0 mi Variable 4.6 mph - 0.04 in Rain Light Rain
10:39 PM 66.0 °F 64.0 °F 93% 29.94 in 5.0 mi Variable 3.5 mph - 0.05 in Rain Light Rain
10:48 PM 66.2 °F 64.4 °F 94% 29.94 in 10.0 mi Calm Calm - 0.05 in Rain Light Rain
10:52 PM 66.0 °F 64.9 °F 96% 29.94 in 10.0 mi SSE 4.6 mph - 0.05 in   Overcast
11:18 PM 66.0 °F 64.9 °F 96% 29.93 in 2.5 mi South 3.5 mph - 0.04 in Rain Rain
11:26 PM 66.0 °F 64.9 °F 96% 29.93 in 5.0 mi Variable 3.5 mph - 0.04 in Rain Light Rain
11:40 PM 66.0 °F 64.9 °F 96% 29.92 in 5.0 mi Variable 3.5 mph - 0.05 in Rain Light Rain
11:52 PM 66.0 °F 64.9 °F 96% 29.91 in 8.0 mi Calm Calm - 0.05 in   Overcast